COSMOS 2476 (744)

Last updated on Mon Jun 22 2026 00:03:26 GMT+0000 (Coordinated Universal Time)

1 37867U 11064A 26172.42849314 -.00000052 00000+0 00000+0 0 9992 2 37867 65.2724 72.7282 0022615 238.6992 299.7329 2.13103667113850
UTC large
Height (km)
Speed (km/s)
/
Latitude / Longitude
Inclination (degrees)
Orbital Period (minutes)
Azimuth
Elevation
Range (km)
Doppler Factor

Next 0 passes for location: London (51.5072 / 0.1276)

No passes found over London.
COSMOS 2476 (744)